Gadsden, AL

5:27 PM CDT on May 22, 2017 (GMT -0500)
Gadsden Municipal

Weather History for KGAD - July, 2012

Change the Weather History Date:

Wednesday, July 25, 2012

  Actual Average Record
Temperature  
Mean Temperature 82 °F -  
Max Temperature 93 °F 86 °F 105 °F (1952)
Min Temperature 71 °F 67 °F 57 °F (1947)
Cooling Degree Days 17    
Growing Degree Days 32 (Base 50)    
Moisture  
Dew Point 71 °F    
Average Humidity 70    
Maximum Humidity 94    
Minimum Humidity 41    
Precipitation  
Precipitation 0.00 in - - ()
Sea Level Pressure  
Sea Level Pressure 30.00 in    
Wind  
Wind Speed 2 mph (WNW)    
Max Wind Speed 9 mph    
Max Gust Speed -    
Visibility 10 miles    
Events      
Averages and records for this station are not official NWS values.
T = Trace of Precipitation, MM = Missing Value Source: NWS Daily Summary

Daily Weather History Graph

Daily Weather History Graph

Search for Another Location

Airport or City:

Trip Planner

Search our weather history database for the weather conditions in past years. The results will help you decide how hot, cold, wet, or windy it might be!

Date:

Astronomy

Jul. 25, 2012 Rise Set
Actual Time 5:51 AM CDT 7:50 PM CDT
Civil Twilight 5:23 AM CDT 8:17 PM CDT
Nautical Twilight 4:49 AM CDT 8:51 PM CDT
Astronomical Twilight 4:13 AM CDT 9:27 PM CDT
Moon 12:32 PM CDT (7/25) 11:39 PM CDT (7/25)
Length of Visible Light 14h 54m
Length of Day
13h 58m
Waxing Crescent, 42% of the Moon is Illuminated
Jul 25
Waxing Crescent
Jul 26
First Quarter
Aug 1
Full
Aug 9
Last Quarter
Aug 17
New

Hourly Weather History & Observations

Time (CDT) Temp. Heat Index Dew Point Humidity Pressure Visibility Wind Dir Wind Speed Gust Speed Precip Events Conditions
12:15 AM 75.2 °F - 71.6 °F 89% 30.00 in 10.0 mi Calm Calm - N/A   Clear
12:55 AM 75.2 °F - 71.6 °F 89% 30.00 in 10.0 mi Calm Calm - N/A   Clear
1:15 AM 75.2 °F - 71.6 °F 89% 30.00 in 10.0 mi Calm Calm - N/A   Clear
1:35 AM 75.2 °F - 71.6 °F 89% 30.00 in 10.0 mi Calm Calm - N/A   Clear
1:55 AM 73.4 °F - 71.6 °F 94% 30.00 in 10.0 mi Calm Calm - N/A   Clear
2:15 AM 73.4 °F - 71.6 °F 94% 30.00 in 10.0 mi Calm Calm - N/A   Clear
2:35 AM 73.4 °F - 71.6 °F 94% 30.00 in 10.0 mi West 4.6 mph - N/A   Clear
2:55 AM 73.4 °F - 71.6 °F 94% 29.99 in 10.0 mi WSW 3.5 mph - N/A   Clear
3:15 AM 73.4 °F - 71.6 °F 94% 29.99 in 10.0 mi Calm Calm - N/A   Clear
3:35 AM 73.4 °F - 71.6 °F 94% 30.00 in 10.0 mi Calm Calm - N/A   Clear
3:55 AM 73.4 °F - 71.6 °F 94% 30.00 in 10.0 mi Calm Calm - N/A   Clear
4:15 AM 73.4 °F - 69.8 °F 88% 30.00 in 10.0 mi Calm Calm - N/A   Clear
4:35 AM 73.4 °F - 69.8 °F 88% 30.00 in 10.0 mi Calm Calm - N/A   Clear
4:55 AM 73.4 °F - 69.8 °F 88% 30.01 in 10.0 mi Calm Calm - N/A   Clear
5:15 AM 71.6 °F - 69.8 °F 94% 30.01 in 10.0 mi Calm Calm - N/A   Clear
5:35 AM 73.4 °F - 69.8 °F 88% 30.02 in 10.0 mi Calm Calm - N/A   Clear
5:55 AM 71.6 °F - 69.8 °F 94% 30.02 in 10.0 mi Calm Calm - N/A   Clear
6:15 AM 71.6 °F - 69.8 °F 94% 30.02 in 10.0 mi Calm Calm - N/A   Clear
6:35 AM 73.4 °F - 69.8 °F 88% 30.04 in 10.0 mi Calm Calm - N/A   Clear
6:55 AM 75.2 °F - 71.6 °F 89% 30.04 in 10.0 mi Calm Calm - N/A   Clear
7:15 AM 77.0 °F - 71.6 °F 83% 30.06 in 10.0 mi Calm Calm - N/A   Clear
7:35 AM 78.8 °F - 71.6 °F 78% 30.06 in 10.0 mi Calm Calm - N/A   Clear
7:55 AM 78.8 °F - 73.4 °F 83% 30.06 in 10.0 mi Calm Calm - N/A   Clear
8:15 AM 80.6 °F 85.4 °F 73.4 °F 79% 30.06 in 10.0 mi WNW 3.5 mph - N/A   Clear
8:35 AM 82.4 °F 88.2 °F 73.4 °F 74% 30.07 in 10.0 mi NW 4.6 mph - N/A   Clear
8:55 AM 82.4 °F 87.2 °F 71.6 °F 70% 30.06 in 10.0 mi NW 5.8 mph - N/A   Clear
9:15 AM 84.2 °F 89.6 °F 71.6 °F 66% 30.06 in 10.0 mi NNW 8.1 mph - N/A   Clear
9:35 AM 86.0 °F 91.8 °F 71.6 °F 62% 30.05 in 10.0 mi WNW 8.1 mph - N/A   Clear
9:55 AM 86.0 °F 91.8 °F 71.6 °F 62% 30.05 in 10.0 mi WNW 9.2 mph - N/A   Clear
10:15 AM 87.8 °F 93.8 °F 71.6 °F 58% 30.05 in 10.0 mi NW 6.9 mph - N/A   Clear
10:35 AM 87.8 °F 93.8 °F 71.6 °F 58% 30.05 in 10.0 mi West 9.2 mph - N/A   Partly Cloudy
10:55 AM 87.8 °F 93.8 °F 71.6 °F 58% 30.04 in 10.0 mi WNW 3.5 mph - N/A   Partly Cloudy
11:15 AM 89.6 °F 96.2 °F 71.6 °F 55% 30.04 in 10.0 mi West 6.9 mph - N/A   Partly Cloudy
11:35 AM 89.6 °F 94.7 °F 69.8 °F 52% 30.03 in 10.0 mi West 4.6 mph - N/A   Partly Cloudy
11:55 AM 89.6 °F 96.2 °F 71.6 °F 55% 30.02 in 10.0 mi West 5.8 mph - N/A   Clear
12:15 PM 91.4 °F 96.8 °F 69.8 °F 49% 30.02 in 10.0 mi NW 9.2 mph - N/A   Clear
12:35 PM 91.4 °F 96.8 °F 69.8 °F 49% 30.01 in 10.0 mi WNW 6.9 mph - N/A   Clear
12:55 PM 91.4 °F 96.8 °F 69.8 °F 49% 30.01 in 10.0 mi WNW 6.9 mph - N/A   Clear
1:15 PM 91.4 °F 96.8 °F 69.8 °F 49% 30.01 in 10.0 mi West 4.6 mph - N/A   Clear
1:35 PM 91.4 °F 95.4 °F 68.0 °F 46% 30.01 in 10.0 mi Calm Calm - N/A   Clear
1:55 PM 91.4 °F 94.0 °F 66.2 °F 43% 30.00 in 10.0 mi WSW 4.6 mph - N/A   Clear
2:15 PM 91.4 °F 96.8 °F 69.8 °F 49% 30.00 in 10.0 mi West 3.5 mph - N/A   Clear
2:35 PM 93.2 °F 98.8 °F 69.8 °F 46% 29.99 in 10.0 mi West 6.9 mph - N/A   Clear
2:55 PM 93.2 °F 96.2 °F 66.2 °F 41% 29.99 in 10.0 mi Calm Calm - N/A   Clear
3:15 PM 93.2 °F 98.8 °F 69.8 °F 46% 29.98 in 10.0 mi WNW 6.9 mph - N/A   Clear
3:35 PM 93.2 °F 97.7 °F 68.0 °F 44% 29.98 in 10.0 mi West 9.2 mph - N/A   Clear
3:55 PM 93.2 °F 98.8 °F 69.8 °F 46% 29.97 in 10.0 mi NW 6.9 mph - N/A   Clear
4:15 PM 93.2 °F 96.2 °F 66.2 °F 41% 29.97 in 10.0 mi West 4.6 mph - N/A   Clear
4:35 PM 93.2 °F 97.7 °F 68.0 °F 44% 29.96 in 10.0 mi West 8.1 mph - N/A   Clear
4:55 PM 91.4 °F 95.4 °F 68.0 °F 46% 29.96 in 10.0 mi NW 4.6 mph - N/A   Clear
5:15 PM 91.4 °F 95.4 °F 68.0 °F 46% 29.95 in 10.0 mi NW 3.5 mph - N/A   Clear
5:35 PM 91.4 °F 95.4 °F 68.0 °F 46% 29.95 in 10.0 mi WNW 4.6 mph - N/A   Clear
5:55 PM 91.4 °F 96.8 °F 69.8 °F 49% 29.95 in 10.0 mi NW 5.8 mph - N/A   Clear
6:15 PM 91.4 °F 96.8 °F 69.8 °F 49% 29.94 in 10.0 mi NW 3.5 mph - N/A   Clear
6:35 PM 89.6 °F 94.7 °F 69.8 °F 52% 29.94 in 10.0 mi Calm Calm - N/A   Clear
6:55 PM 87.8 °F 95.6 °F 73.4 °F 62% 29.94 in 10.0 mi Calm Calm - N/A   Clear
7:15 PM 86.0 °F 93.4 °F 73.4 °F 66% 29.94 in 10.0 mi Calm Calm - N/A   Clear
7:35 PM 84.2 °F 89.6 °F 71.6 °F 66% 29.94 in 10.0 mi Calm Calm - N/A   Clear
7:55 PM 82.4 °F 87.2 °F 71.6 °F 70% 29.95 in 10.0 mi Calm Calm - N/A   Clear
8:15 PM 82.4 °F 87.2 °F 71.6 °F 70% 29.95 in 10.0 mi Calm Calm - N/A   Clear
8:35 PM 80.6 °F 84.6 °F 71.6 °F 74% 29.96 in 10.0 mi Calm Calm - N/A   Clear
8:55 PM 80.6 °F 84.6 °F 71.6 °F 74% 29.96 in 10.0 mi Calm Calm - N/A   Clear
9:15 PM 78.8 °F - 73.4 °F 83% 29.97 in 10.0 mi West 3.5 mph - N/A   Clear
9:35 PM 78.8 °F - 73.4 °F 83% 29.97 in 10.0 mi West 3.5 mph - N/A   Clear
9:55 PM 78.8 °F - 73.4 °F 83% 29.97 in 10.0 mi Calm Calm - N/A   Clear
10:15 PM 78.8 °F - 73.4 °F 83% 29.97 in 10.0 mi Calm Calm - N/A   Clear
10:35 PM 77.0 °F - 73.4 °F 89% 29.96 in 10.0 mi Calm Calm - N/A   Clear
10:55 PM 78.8 °F - 73.4 °F 83% 29.96 in 10.0 mi Calm Calm - N/A   Clear
11:15 PM 77.0 °F - 73.4 °F 89% 29.95 in 10.0 mi Calm Calm - N/A   Clear
11:35 PM 77.0 °F - 73.4 °F 89% 29.95 in 10.0 mi Calm Calm - N/A   Clear
11:55 PM 77.0 °F - 71.6 °F 83% 29.95 in 10.0 mi Calm Calm - N/A   Clear